STARLINK-3758, 52297

Orbit data source: Space-Track

STARLINK-3758, 52297 is a payload satellite owned by SpaceX/Seattle (US) in LEO that was launched on Thu, 21 Apr 2022 UTC via an FALCON 9 launch vehicle from the Air Force Eastern Test Range (AFETR). Payload-class satellites include a variety of spacecraft equipped with specific instruments for various scientific and technological missions. These include communications satellites like Starlink; space stations such as the ISS; scientific satellites like the Hubble; Earth observation satellites from companies like Planet Labs, Umbra, and HawkEye 360; GPS; miniature CubeSats for education and research; and military/defense satellites.

Loading next visibility...
Identifier
52297, 2022-041AN
Orbit
LEO
Country
Flag of USUS
Related business
Manufacturer
SpaceX/Seattle
Mission
Operational Commercial Communications
Bus & Motor
STARLINK, Unknown motor
Mass
297 kg wet, ~275 kg dry
Launch date (UTC)
2022-04-21 (4 years ago)
Launch vehicle
FALCON 9
Launch site
Air Force Eastern Test Range (AFETR)
Object type
Payload
Rocket body
Debris
Shape & HBR
Box + 1 Pan, 10.1 m
Radar Cross Section
11.087 m², Large (>1 m²)

Expand to show TLE details & history
Last TLE update: 5 hours ago

TLE from 5 hours ago
0 STARLINK-3758
1 52297U 22041AN  26193.16668980  .00068111  00000-0  31321-2 0  9998
2 52297  53.1601 259.7311 0001647  91.7868 163.7457 15.19742161  5586
Epoch: 2026-07-12T04:00Z
TLE epoch observation values (Epoch: 2026-07-12T04:00:01.998Z)
Latitude
-50.96579°
Longitude
156.42761°
Altitude
525.346 km
Speed
7.6 km/s
True Right ascension
09h 46m 01s
True Declination
-50° 47' 30"
Sunlit
Object was in daylight at epoch
Visualization orbit readout
Latitude
Unknown
Longitude
Unknown
Altitude
Unknown
Speed
Unknown
Apparent Right ascension
Unknown
Apparent Declination
Unknown
Sunlit
N/A
Visualization observer readout
Local Sidereal Time
21:15:28
Azimuth
Unknown
Elevation
Unknown
Doppler factor
Unknown
Orbital elements
Apogee altitude
508.008 km
Perigee altitude
505.741 km
Semi-major axis
6,885.011 km
Eccentricity
0.00016
Inclination
53.1601°
RAAN
259.7311°
Arg. of periapsis
91.7868°
True anomaly
163.75098°
Mean anomaly
163.7457°
Eccentric anomaly
163.74834°
Mean motion
3.79915 °/min
Orbital period
94.76 mins
BSTAR
0.0031321
Loading maneuver chart data...
Computing Atmospheric mass density...
Loading historical data...
Loading historical data...
Loading historical data...
Loading historical data...
Loading historical data...
Loading historical data...
Loading historical data...

Documentation

Showing up to 5 results
|